Bullhead City, AZ

2:52 AM MST on October 19, 2017 (GMT -0700)
Laughlin-Bullhead International

Weather History for KIFP - February, 2014

Change the Weather History Date:

Saturday, February 1, 2014

  Actual Average Record
Temperature  
Mean Temperature 52 °F -  
Max Temperature 57 °F 64 °F 84 °F (2003)
Min Temperature 48 °F 46 °F 36 °F (1989)
Degree Days  
Heating Degree Days 12    
Growing Degree Days 2 (Base 50)    
Moisture  
Dew Point 20 °F    
Average Humidity 27    
Maximum Humidity 41    
Minimum Humidity 18    
Precipitation  
Precipitation 0.00 in - - ()
Sea Level Pressure  
Sea Level Pressure 29.99 in    
Wind  
Wind Speed 17 mph (North)    
Max Wind Speed 30 mph    
Max Gust Speed 37 mph    
Visibility 10 miles    
Events      
Averages and records for this station are not official NWS values.
T = Trace of Precipitation, MM = Missing Value Source: NWS Daily Summary

Daily Weather History Graph

Daily Weather History Graph

Search for Another Location

Airport or City:

Trip Planner

Search our weather history database for the weather conditions in past years. The results will help you decide how hot, cold, wet, or windy it might be!

Date:

Astronomy

Feb. 01, 2014 Rise Set
Actual Time 7:37 AM MST 6:06 PM MST
Civil Twilight 7:10 AM MST 6:33 PM MST
Nautical Twilight 6:40 AM MST 7:03 PM MST
Astronomical Twilight 6:10 AM MST 7:33 PM MST
Moon 8:36 AM MST (2/1) 8:39 PM MST (2/1)
Length of Visible Light 11h 22m
Length of Day
10h 29m
Waxing Crescent, 5% of the Moon is Illuminated
Feb 1
Waxing Crescent
Feb 6
First Quarter
Feb 14
Full
Feb 22
Last Quarter
Mar 1
New

Hourly Weather History & Observations

Time (MST) Temp. Dew Point Humidity Pressure Visibility Wind Dir Wind Speed Gust Speed Precip Events Conditions
12:15 AM 57.2 °F 28.4 °F 33% 29.87 in 10.0 mi North 11.5 mph - N/A   Mostly Cloudy
12:35 AM 57.2 °F 24.8 °F 29% 29.88 in 10.0 mi NNE 16.1 mph - N/A   Partly Cloudy
12:55 AM 57.2 °F 24.8 °F 29% 29.88 in 10.0 mi North 17.3 mph 20.7 mph N/A   Partly Cloudy
1:15 AM 57.2 °F 23.0 °F 27% 29.89 in 10.0 mi North 13.8 mph 21.9 mph N/A   Mostly Cloudy
1:35 AM 57.2 °F 26.6 °F 31% 29.89 in 10.0 mi North 18.4 mph 24.2 mph N/A   Scattered Clouds
1:55 AM 55.4 °F 28.4 °F 36% 29.90 in 10.0 mi North 17.3 mph 24.2 mph N/A   Clear
2:15 AM 55.4 °F 32.0 °F 41% 29.90 in 10.0 mi North 12.7 mph - N/A   Clear
2:35 AM 55.4 °F 32.0 °F 41% 29.90 in 10.0 mi North 12.7 mph 16.1 mph N/A   Partly Cloudy
2:55 AM 55.4 °F 24.8 °F 31% 29.90 in 10.0 mi North 16.1 mph 24.2 mph N/A   Clear
3:15 AM 55.4 °F 23.0 °F 29% 29.90 in 10.0 mi North 17.3 mph - N/A   Clear
3:35 AM 55.4 °F 23.0 °F 29% 29.91 in 10.0 mi North 18.4 mph 23.0 mph N/A   Clear
3:55 AM 53.6 °F 23.0 °F 30% 29.91 in 10.0 mi NNE 13.8 mph - N/A   Partly Cloudy
4:15 AM 53.6 °F 23.0 °F 30% 29.91 in 10.0 mi North 15.0 mph 18.4 mph N/A   Scattered Clouds
4:35 AM 53.6 °F 23.0 °F 30% 29.92 in 10.0 mi North 10.4 mph - N/A   Clear
4:55 AM 53.6 °F 28.4 °F 38% 29.93 in 10.0 mi North 11.5 mph - N/A   Mostly Cloudy
5:15 AM 53.6 °F 24.8 °F 33% 29.93 in 10.0 mi North 15.0 mph - N/A   Scattered Clouds
5:35 AM 51.8 °F 26.6 °F 38% 29.93 in 10.0 mi North 17.3 mph - N/A   Clear
5:55 AM 50.0 °F 24.8 °F 37% 29.95 in 10.0 mi North 13.8 mph - N/A   Clear
6:15 AM 50.0 °F 24.8 °F 37% 29.95 in 10.0 mi North 17.3 mph 21.9 mph N/A   Clear
6:35 AM 50.0 °F 24.8 °F 37% 29.96 in 10.0 mi North 12.7 mph - N/A   Clear
6:55 AM 50.0 °F 24.8 °F 37% 29.97 in 10.0 mi NNE 15.0 mph 19.6 mph N/A   Clear
7:15 AM 50.0 °F 23.0 °F 35% 29.98 in 10.0 mi North 16.1 mph 20.7 mph N/A   Clear
7:35 AM 50.0 °F 19.4 °F 30% 29.99 in 10.0 mi North 13.8 mph - N/A   Clear
7:55 AM 48.2 °F 19.4 °F 32% 30.00 in 10.0 mi North 12.7 mph - N/A   Clear
8:15 AM 48.2 °F 23.0 °F 37% 30.00 in 10.0 mi North 13.8 mph - N/A   Clear
8:35 AM 48.2 °F 19.4 °F 32% 30.01 in 10.0 mi North 15.0 mph 20.7 mph N/A   Clear
8:55 AM 50.0 °F 17.6 °F 28% 30.01 in 10.0 mi North 18.4 mph 23.0 mph N/A   Clear
9:15 AM 50.0 °F 17.6 °F 28% 30.02 in 10.0 mi North 20.7 mph 27.6 mph N/A   Clear
9:35 AM 50.0 °F 17.6 °F 28% 30.03 in 10.0 mi North 19.6 mph 26.5 mph N/A   Clear
9:55 AM 50.0 °F 17.6 °F 28% 30.04 in 10.0 mi North 15.0 mph 27.6 mph N/A   Clear
10:15 AM 51.8 °F 19.4 °F 28% 30.04 in 10.0 mi North 23.0 mph 27.6 mph N/A   Clear
10:35 AM 51.8 °F 17.6 °F 26% 30.04 in 10.0 mi North 23.0 mph 28.8 mph N/A   Clear
10:55 AM 51.8 °F 17.6 °F 26% 30.03 in 10.0 mi North 27.6 mph 31.1 mph N/A   Clear
11:15 AM 53.6 °F 17.6 °F 24% 30.03 in 10.0 mi North 27.6 mph 32.2 mph N/A   Clear
11:35 AM 53.6 °F 19.4 °F 26% 30.02 in 10.0 mi North 25.3 mph - N/A   Clear
11:55 AM 53.6 °F 19.4 °F 26% 30.01 in 10.0 mi North 29.9 mph 36.8 mph N/A   Clear
12:15 PM 55.4 °F 19.4 °F 25% 30.01 in 10.0 mi North 28.8 mph 35.7 mph N/A   Clear
12:35 PM 55.4 °F 19.4 °F 25% 30.01 in 10.0 mi North 24.2 mph 32.2 mph N/A   Clear
12:55 PM 55.4 °F 19.4 °F 25% 30.00 in 10.0 mi North 25.3 mph 31.1 mph N/A   Clear
1:15 PM 55.4 °F 19.4 °F 25% 29.99 in 10.0 mi North 25.3 mph 32.2 mph N/A   Clear
1:35 PM 57.2 °F 19.4 °F 23% 29.99 in 10.0 mi North 24.2 mph 28.8 mph N/A   Clear
1:55 PM 57.2 °F 17.6 °F 21% 29.98 in 10.0 mi NNW 21.9 mph 29.9 mph N/A   Clear
2:15 PM 57.2 °F 17.6 °F 21% 29.98 in 10.0 mi North 23.0 mph 32.2 mph N/A   Clear
2:35 PM 57.2 °F 17.6 °F 21% 29.98 in 10.0 mi North 21.9 mph - N/A   Clear
2:55 PM 57.2 °F 17.6 °F 21% 29.98 in 10.0 mi North 21.9 mph 31.1 mph N/A   Clear
3:15 PM 57.2 °F 15.8 °F 20% 29.98 in 10.0 mi North 19.6 mph 25.3 mph N/A   Clear
3:35 PM 57.2 °F 15.8 °F 20% 29.98 in 10.0 mi North 19.6 mph 26.5 mph N/A   Clear
3:55 PM 57.2 °F 15.8 °F 20% 29.98 in 10.0 mi North 19.6 mph 26.5 mph N/A   Clear
4:15 PM 57.2 °F 15.8 °F 20% 29.98 in 10.0 mi North 20.7 mph 26.5 mph N/A   Clear
4:35 PM 57.2 °F 15.8 °F 20% 29.98 in 10.0 mi North 25.3 mph 29.9 mph N/A   Clear
4:55 PM 57.2 °F 15.8 °F 20% 29.98 in 10.0 mi NNW 21.9 mph 26.5 mph N/A   Clear
5:15 PM 57.2 °F 15.8 °F 20% 29.98 in 10.0 mi NNW 21.9 mph 26.5 mph N/A   Clear
5:35 PM 57.2 °F 14.0 °F 18% 29.99 in 10.0 mi North 19.6 mph 26.5 mph N/A   Clear
5:55 PM 57.2 °F 15.8 °F 20% 29.99 in 10.0 mi North 19.6 mph 26.5 mph N/A   Clear
6:15 PM 55.4 °F 15.8 °F 21% 30.00 in 10.0 mi North 17.3 mph 26.5 mph N/A   Clear
6:35 PM 55.4 °F 15.8 °F 21% 30.00 in 10.0 mi North 20.7 mph - N/A   Clear
6:55 PM 55.4 °F 15.8 °F 21% 30.01 in 10.0 mi North 19.6 mph - N/A   Clear
7:15 PM 55.4 °F 15.8 °F 21% 30.01 in 10.0 mi North 12.7 mph - N/A   Clear
7:35 PM 55.4 °F 14.0 °F 20% 30.02 in 10.0 mi North 13.8 mph - N/A   Clear
7:55 PM 53.6 °F 15.8 °F 22% 30.03 in 10.0 mi North 12.7 mph - N/A   Clear
8:15 PM 53.6 °F 15.8 °F 22% 30.03 in 10.0 mi North 15.0 mph - N/A   Clear
8:35 PM 53.6 °F 15.8 °F 22% 30.04 in 10.0 mi North 15.0 mph - N/A   Clear
8:55 PM 53.6 °F 17.6 °F 24% 30.04 in 10.0 mi North 13.8 mph - N/A   Clear
9:15 PM 53.6 °F 15.8 °F 22% 30.05 in 10.0 mi North 12.7 mph - N/A   Clear
9:35 PM 51.8 °F 15.8 °F 24% 30.06 in 10.0 mi North 12.7 mph - N/A   Clear
9:55 PM 51.8 °F 15.8 °F 24% 30.06 in 10.0 mi North 13.8 mph - N/A   Clear
10:15 PM 51.8 °F 15.8 °F 24% 30.06 in 10.0 mi NNE 13.8 mph - N/A   Clear
10:35 PM 51.8 °F 14.0 °F 22% 30.07 in 10.0 mi NNE 10.4 mph - N/A   Clear
10:55 PM 50.0 °F 14.0 °F 24% 30.07 in 10.0 mi North 10.4 mph - N/A   Clear
11:15 PM 50.0 °F 14.0 °F 24% 30.07 in 10.0 mi NNE 10.4 mph - N/A   Clear
11:35 PM 50.0 °F 15.8 °F 26% 30.07 in 10.0 mi North 8.1 mph - N/A   Clear
11:55 PM 50.0 °F 14.0 °F 24% 30.07 in 10.0 mi North 10.4 mph - N/A   Clear